THY1827 LTFM-LFPG

Flight info

Callsign THY1827
Flight time 2h 53m
Altitude 40000
Route TUDBU1D/35L TUDBU Q26 ETUBA DCT ELDET DCT BACAM DCT SODGO DCT DIDIX DCT INVED DCT STEIN DCT RENKA L610 STAUB/N0452F240 L610 MAMOR DCT ASPAT DCT VIBOM DCT BETEX DCT IDOSA DCT TOLVU/N0490F410 DCT RAPOR DCT VEDUS
Aircraft A359/H-SDE2E3GHIJ3J4J5LM1ORWXY/LB1D1

Departure

Time 2026-05-07 15:37
Airport İstanbul Airport (LTFM)

Arrival

Time 2026-05-07 18:30
Airport Charles de Gaulle International Airport (LFPG)
Time Latitude Longitude Altitude Speed Heading
2026-05-07 15:06 41.26791 28.73757 335 ft 0 kts 269°
2026-05-07 15:24 41.26791 28.73770 335 ft 2 kts 274°
2026-05-07 15:25 41.26789 28.73792 338 ft 2 kts 281°
2026-05-07 15:25 41.26785 28.73813 335 ft 2 kts 290°
2026-05-07 15:25 41.26778 28.73833 335 ft 2 kts 303°
2026-05-07 15:25 41.26768 28.73849 335 ft 2 kts 317°
2026-05-07 15:26 41.26756 28.73862 335 ft 2 kts 331°
2026-05-07 15:26 41.26741 28.73871 335 ft 2 kts 343°
2026-05-07 15:26 41.26725 28.73876 336 ft 2 kts 353°
2026-05-07 15:26 41.26714 28.73877 336 ft 1 kts 358°
2026-05-07 15:27 41.26713 28.73877 335 ft 0 kts 359°
2026-05-07 15:32 41.26714 28.73877 336 ft 3 kts 359°
2026-05-07 15:33 41.26832 28.73874 335 ft 23 kts
2026-05-07 15:33 41.26919 28.73873 337 ft 13 kts 355°
2026-05-07 15:33 41.26966 28.73756 339 ft 20 kts 264°
2026-05-07 15:33 41.26958 28.73452 335 ft 35 kts 270°
2026-05-07 15:34 41.26956 28.73192 337 ft 14 kts 269°
2026-05-07 15:34 41.26952 28.73054 336 ft 14 kts 267°
2026-05-07 15:34 41.26930 28.73001 335 ft 9 kts 208°
2026-05-07 15:34 41.26794 28.72989 336 ft 30 kts 178°
2026-05-07 15:35 41.26715 28.72911 337 ft 22 kts 263°
2026-05-07 15:35 41.26714 28.72648 335 ft 39 kts 269°
2026-05-07 15:35 41.26741 28.72526 336 ft 7 kts 340°
2026-05-07 15:35 41.26785 28.72515 336 ft 0 kts 358°
2026-05-07 15:36 41.27001 28.72509 337 ft 70 kts 359°
2026-05-07 15:37 41.27730 28.72492 335 ft 137 kts 359°
2026-05-07 15:37 41.28459 28.72487 418 ft 165 kts
2026-05-07 15:37 41.29545 28.72436 1251 ft 159 kts 358°
2026-05-07 15:37 41.30708 28.72357 1760 ft 180 kts 355°
2026-05-07 15:38 41.32061 28.72353 2095 ft 209 kts
2026-05-07 15:38 41.33595 28.72410 2475 ft 235 kts 359°
2026-05-07 15:38 41.35293 28.72458 3001 ft 254 kts 358°
2026-05-07 15:38 41.37059 28.72490 3805 ft 258 kts 357°
2026-05-07 15:39 41.38829 28.72117 4671 ft 257 kts 337°
2026-05-07 15:39 41.40473 28.71154 5522 ft 260 kts 330°
2026-05-07 15:39 41.41955 28.69753 6402 ft 262 kts 315°
2026-05-07 15:39 41.43218 28.67968 7323 ft 265 kts 310°
2026-05-07 15:40 41.44414 28.66076 8280 ft 268 kts 309°
2026-05-07 15:40 41.45601 28.64140 9261 ft 272 kts 308°
2026-05-07 15:40 41.46794 28.62169 10205 ft 276 kts 308°
2026-05-07 15:40 41.48037 28.60104 10727 ft 296 kts 308°
2026-05-07 15:41 41.49374 28.57875 11113 ft 319 kts 308°
2026-05-07 15:41 41.50804 28.55484 11523 ft 339 kts 308°
2026-05-07 15:41 41.52299 28.52983 12149 ft 350 kts 308°
2026-05-07 15:41 41.53811 28.50449 12898 ft 357 kts 308°
2026-05-07 15:42 41.55345 28.47810 13671 ft 362 kts 304°
2026-05-07 15:42 41.56403 28.44748 14402 ft 367 kts 284°
2026-05-07 15:42 41.56814 28.41371 15159 ft 371 kts 277°
2026-05-07 15:42 41.57076 28.37927 15921 ft 375 kts 276°
2026-05-07 15:43 41.57322 28.34443 16684 ft 378 kts 276°
2026-05-07 15:43 41.57565 28.30928 17441 ft 382 kts 276°
2026-05-07 15:43 41.57805 28.27375 18186 ft 386 kts 276°
2026-05-07 15:43 41.58041 28.23790 18858 ft 390 kts 276°
2026-05-07 15:44 41.58448 28.20190 19518 ft 392 kts 284°
2026-05-07 15:44 41.59389 28.16769 20205 ft 394 kts 298°
2026-05-07 15:44 41.60989 28.13811 20938 ft 396 kts 315°
2026-05-07 15:44 41.63098 28.11415 21674 ft 398 kts 322°
2026-05-07 15:45 41.65316 28.09174 22399 ft 401 kts 323°
2026-05-07 15:45 41.67532 28.06968 23124 ft 404 kts 323°
2026-05-07 15:45 41.69796 28.04712 23803 ft 407 kts 323°
2026-05-07 15:45 41.72074 28.02438 24397 ft 410 kts 323°
2026-05-07 15:46 41.76681 27.97827 25534 ft 416 kts 322°
2026-05-07 15:46 41.79010 27.95491 26113 ft 419 kts 322°
2026-05-07 15:46 41.81362 27.93130 26710 ft 422 kts 322°
2026-05-07 15:47 41.83719 27.90761 27287 ft 425 kts 322°
2026-05-07 15:47 41.86093 27.88373 27868 ft 428 kts 322°
2026-05-07 15:47 41.88478 27.85971 28506 ft 429 kts 322°
2026-05-07 15:47 41.90877 27.83553 29061 ft 432 kts 322°
2026-05-07 15:48 41.93292 27.81116 29558 ft 436 kts 322°
2026-05-07 15:48 41.95720 27.78635 30028 ft 440 kts 320°
2026-05-07 15:48 41.98014 27.75883 30479 ft 443 kts 316°
2026-05-07 15:48 42.00222 27.72980 30908 ft 445 kts 314°
2026-05-07 15:49 42.02398 27.70015 31345 ft 447 kts 314°
2026-05-07 15:49 42.04566 27.67015 31764 ft 448 kts 313°
2026-05-07 15:49 42.06745 27.63989 32147 ft 450 kts 313°
2026-05-07 15:49 42.08935 27.60952 32526 ft 452 kts 313°
2026-05-07 15:50 42.11144 27.57897 32787 ft 457 kts 313°
2026-05-07 15:50 42.13368 27.54829 33135 ft 458 kts 313°
2026-05-07 15:50 42.15563 27.51805 33720 ft 454 kts 313°
2026-05-07 15:50 42.17766 27.48774 34327 ft 450 kts 313°
2026-05-07 15:51 42.19952 27.45760 34732 ft 449 kts 313°
2026-05-07 15:51 42.22138 27.42744 35052 ft 450 kts 313°
2026-05-07 15:51 42.24328 27.39719 35383 ft 450 kts 313°
2026-05-07 15:51 42.26516 27.36691 35662 ft 452 kts 313°
2026-05-07 15:52 42.28716 27.33645 35918 ft 453 kts 313°
2026-05-07 15:52 42.30914 27.30598 36252 ft 453 kts 312°
2026-05-07 15:52 42.33115 27.27543 36584 ft 453 kts 312°
2026-05-07 15:52 42.35316 27.24485 36915 ft 452 kts 312°
2026-05-07 15:53 42.37506 27.21440 37253 ft 452 kts 312°
2026-05-07 15:53 42.39703 27.18380 37552 ft 452 kts 312°
2026-05-07 15:53 42.41889 27.15334 37805 ft 452 kts 312°
2026-05-07 15:53 42.44059 27.12305 37978 ft 455 kts 312°
2026-05-07 15:54 42.46259 27.09232 38316 ft 453 kts 312°
2026-05-07 15:54 42.48451 27.06169 38669 ft 452 kts 312°
2026-05-07 15:54 42.50632 27.03115 38890 ft 452 kts 312°
2026-05-07 15:54 42.52817 27.00054 39084 ft 452 kts 312°
2026-05-07 15:55 42.55002 26.96988 39263 ft 452 kts 312°
2026-05-07 15:55 42.57188 26.93919 39463 ft 452 kts 312°
2026-05-07 15:55 42.59380 26.90837 39579 ft 454 kts 312°
2026-05-07 15:55 42.61577 26.87744 39729 ft 455 kts 312°
2026-05-07 15:56 42.63777 26.84644 39911 ft 455 kts 312°
2026-05-07 15:56 42.65976 26.81543 40042 ft 456 kts 312°
2026-05-07 15:56 42.68181 26.78430 40065 ft 456 kts 312°
2026-05-07 15:57 42.72575 26.72216 40064 ft 456 kts 312°
2026-05-07 15:57 42.76950 26.66015 40065 ft 457 kts 312°
2026-05-07 15:58 42.81286 26.59684 40056 ft 457 kts 307°
2026-05-07 15:58 42.85157 26.52829 40052 ft 456 kts 305°
2026-05-07 15:59 42.88936 26.45870 40048 ft 456 kts 304°
2026-05-07 15:59 42.92703 26.38864 40048 ft 458 kts 304°
2026-05-07 16:00 42.96478 26.31843 40042 ft 458 kts 304°
2026-05-07 16:00 43.00254 26.24818 40039 ft 458 kts 304°
2026-05-07 16:01 43.04022 26.17798 40038 ft 458 kts 304°
2026-05-07 16:01 43.07769 26.10799 40027 ft 459 kts 304°
2026-05-07 16:02 43.11536 26.03745 40021 ft 458 kts 304°
2026-05-07 16:02 43.15297 25.96683 40022 ft 458 kts 304°
2026-05-07 16:03 43.19055 25.89613 40020 ft 459 kts 304°
2026-05-07 16:03 43.22810 25.82528 40021 ft 459 kts 304°
2026-05-07 16:04 43.26543 25.75473 40021 ft 460 kts 304°
2026-05-07 16:04 43.30296 25.68358 40020 ft 460 kts 304°
2026-05-07 16:05 43.34044 25.61239 40021 ft 460 kts 304°
2026-05-07 16:05 43.37788 25.54107 40019 ft 460 kts 304°
2026-05-07 16:06 43.41527 25.46970 40015 ft 459 kts 304°
2026-05-07 16:06 43.45262 25.39822 40028 ft 460 kts 303°
2026-05-07 16:07 43.48996 25.32659 40021 ft 461 kts 303°
2026-05-07 16:07 43.52729 25.25480 40025 ft 461 kts 303°
2026-05-07 16:08 43.56420 25.18367 40027 ft 461 kts 303°
2026-05-07 16:08 43.60148 25.11162 40028 ft 461 kts 303°
2026-05-07 16:09 43.63876 25.03941 40030 ft 462 kts 303°
2026-05-07 16:09 43.67601 24.96707 40030 ft 462 kts 303°
2026-05-07 16:10 43.71324 24.89460 40033 ft 462 kts 303°
2026-05-07 16:10 43.75042 24.82203 40031 ft 462 kts 303°
2026-05-07 16:11 43.78741 24.74967 40039 ft 463 kts 303°
2026-05-07 16:11 43.82452 24.67689 40041 ft 463 kts 303°
2026-05-07 16:12 43.86161 24.60397 40051 ft 463 kts 303°
2026-05-07 16:12 43.89867 24.53093 40046 ft 463 kts 303°
2026-05-07 16:13 43.93567 24.45782 40054 ft 462 kts 303°
2026-05-07 16:13 43.97259 24.38467 40057 ft 462 kts 303°
2026-05-07 16:14 44.00944 24.31151 40046 ft 462 kts 302°
2026-05-07 16:14 44.04627 24.23817 40045 ft 462 kts 302°
2026-05-07 16:15 44.08300 24.16487 40044 ft 462 kts 302°
2026-05-07 16:15 44.11965 24.09153 40049 ft 462 kts 302°
2026-05-07 16:16 44.15631 24.01800 40048 ft 462 kts 302°
2026-05-07 16:16 44.19300 23.94419 40045 ft 463 kts 302°
2026-05-07 16:17 44.22966 23.87029 40048 ft 463 kts 302°
2026-05-07 16:17 44.26009 23.80879 40047 ft 463 kts 302°
2026-05-07 16:18 44.29910 23.73708 40048 ft 466 kts 308°
2026-05-07 16:18 44.34220 23.66916 40048 ft 467 kts 309°
2026-05-07 16:19 44.38588 23.60186 40048 ft 467 kts 309°
2026-05-07 16:19 44.42936 23.53488 40048 ft 467 kts 309°
2026-05-07 16:20 44.47294 23.46742 40051 ft 468 kts 309°
2026-05-07 16:20 44.51653 23.39956 40060 ft 468 kts 309°
2026-05-07 16:21 44.55991 23.33190 40052 ft 468 kts 309°
2026-05-07 16:21 44.60334 23.26398 40050 ft 468 kts 309°
2026-05-07 16:22 44.64681 23.19584 40056 ft 468 kts 308°
2026-05-07 16:22 44.69023 23.12760 40054 ft 468 kts 308°
2026-05-07 16:23 44.73334 23.05968 40051 ft 468 kts 308°
2026-05-07 16:23 44.77679 22.99108 40056 ft 468 kts 308°
2026-05-07 16:24 44.82010 22.92252 40054 ft 468 kts 308°
2026-05-07 16:24 44.86345 22.85373 40053 ft 468 kts 308°
2026-05-07 16:25 44.90560 22.78388 40058 ft 467 kts 306°
2026-05-07 16:25 44.94588 22.71265 40059 ft 467 kts 305°
2026-05-07 16:26 44.98640 22.64091 40061 ft 468 kts 306°
2026-05-07 16:26 45.02720 22.56928 40063 ft 468 kts 306°
2026-05-07 16:27 45.06817 22.49755 40065 ft 468 kts 306°
2026-05-07 16:27 45.10912 22.42575 40057 ft 468 kts 306°
2026-05-07 16:28 45.14998 22.35387 40052 ft 468 kts 305°
2026-05-07 16:28 45.19078 22.28191 40055 ft 469 kts 306°
2026-05-07 16:29 45.23163 22.20967 40045 ft 469 kts 305°
2026-05-07 16:29 45.27215 22.13783 40045 ft 469 kts 305°
2026-05-07 16:30 45.31286 22.06546 40040 ft 469 kts 305°
2026-05-07 16:30 45.35356 21.99290 40032 ft 469 kts 305°
2026-05-07 16:31 45.39422 21.92023 40029 ft 469 kts 305°
2026-05-07 16:31 45.43482 21.84751 40036 ft 469 kts 305°
2026-05-07 16:32 45.47538 21.77467 40019 ft 469 kts 304°
2026-05-07 16:32 45.51566 21.70214 40010 ft 470 kts 304°
2026-05-07 16:33 45.55622 21.62892 40018 ft 470 kts 304°
2026-05-07 16:33 45.59669 21.55568 40011 ft 470 kts 304°
2026-05-07 16:34 45.63723 21.48211 40003 ft 470 kts 304°
2026-05-07 16:34 45.67767 21.40851 39999 ft 470 kts 304°
2026-05-07 16:35 45.71790 21.33513 39992 ft 470 kts 304°
2026-05-07 16:35 45.75824 21.26136 40007 ft 470 kts 304°
2026-05-07 16:36 45.79854 21.18746 39996 ft 470 kts 304°
2026-05-07 16:36 45.83876 21.11350 39995 ft 471 kts 304°
2026-05-07 16:37 45.87898 21.03922 39993 ft 470 kts 303°
2026-05-07 16:37 45.91492 20.96187 40003 ft 468 kts 298°
2026-05-07 16:38 45.94968 20.88287 39995 ft 467 kts 298°
2026-05-07 16:38 45.98406 20.80372 39999 ft 467 kts 298°
2026-05-07 16:39 46.01843 20.72447 39996 ft 467 kts 298°
2026-05-07 16:39 46.05281 20.64513 40014 ft 467 kts 298°
2026-05-07 16:40 46.08710 20.56585 39996 ft 466 kts 298°
2026-05-07 16:40 46.12114 20.48692 40001 ft 466 kts 298°
2026-05-07 16:41 46.15529 20.40751 39998 ft 466 kts 298°
2026-05-07 16:41 46.18722 20.32638 40008 ft 464 kts 293°
2026-05-07 16:42 46.21584 20.24302 40002 ft 463 kts 292°
2026-05-07 16:42 46.24446 20.15970 40002 ft 463 kts 293°
2026-05-07 16:43 46.27366 20.07658 40000 ft 464 kts 293°
2026-05-07 16:43 46.30308 19.99345 40002 ft 464 kts 293°
2026-05-07 16:44 46.33233 19.91071 40006 ft 464 kts 293°
2026-05-07 16:44 46.36164 19.82745 40003 ft 463 kts 293°
2026-05-07 16:45 46.39083 19.74419 40004 ft 463 kts 293°
2026-05-07 16:45 46.41996 19.66083 40006 ft 463 kts 293°
2026-05-07 16:46 46.44902 19.57741 40007 ft 464 kts 293°
2026-05-07 16:46 46.47806 19.49380 40007 ft 464 kts 293°
2026-05-07 16:47 46.50684 19.41068 40007 ft 464 kts 293°
2026-05-07 16:47 46.53573 19.32697 40007 ft 463 kts 293°
2026-05-07 16:48 46.56455 19.24320 40006 ft 463 kts 292°
2026-05-07 16:48 46.59329 19.15939 40008 ft 463 kts 292°
2026-05-07 16:49 46.62196 19.07552 40004 ft 463 kts 292°
2026-05-07 16:49 46.65067 18.99124 40005 ft 464 kts 292°
2026-05-07 16:50 46.67928 18.90700 39997 ft 464 kts 292°
2026-05-07 16:50 46.70769 18.82309 39996 ft 464 kts 292°
2026-05-07 16:51 46.73624 18.73850 39996 ft 464 kts 292°
2026-05-07 16:51 46.76471 18.65386 39993 ft 464 kts 292°
2026-05-07 16:52 46.79311 18.56915 40000 ft 464 kts 292°
2026-05-07 16:52 46.82130 18.48479 39990 ft 465 kts 292°
2026-05-07 16:53 46.84961 18.39982 39984 ft 465 kts 292°
2026-05-07 16:53 46.87784 18.31478 39986 ft 465 kts 292°
2026-05-07 16:54 46.90607 18.22949 39990 ft 465 kts 292°
2026-05-07 16:54 46.93398 18.14485 39980 ft 465 kts 292°
2026-05-07 16:55 46.96203 18.05954 39979 ft 465 kts 292°
2026-05-07 16:55 46.99003 17.97410 39978 ft 465 kts 291°
2026-05-07 16:56 47.01797 17.88855 39999 ft 465 kts 291°
2026-05-07 16:56 47.05972 17.76017 39977 ft 465 kts 291°
2026-05-07 16:57 47.08756 17.67421 39962 ft 466 kts 291°
2026-05-07 16:57 47.11511 17.58885 39962 ft 466 kts 291°
2026-05-07 16:58 47.14287 17.50256 39964 ft 466 kts 291°
2026-05-07 16:58 47.17054 17.41623 39964 ft 467 kts 291°
2026-05-07 16:59 47.19821 17.32966 39963 ft 468 kts 291°
2026-05-07 16:59 47.22582 17.24297 39960 ft 467 kts 291°
2026-05-07 17:00 47.25317 17.15678 39963 ft 468 kts 291°
2026-05-07 17:00 47.28072 17.06964 39955 ft 470 kts 291°
2026-05-07 17:01 47.30831 16.98210 39952 ft 470 kts 290°
2026-05-07 17:01 47.33578 16.89467 39955 ft 470 kts 290°
2026-05-07 17:02 47.36302 16.80764 39971 ft 470 kts 291°
2026-05-07 17:02 47.39036 16.72002 39960 ft 470 kts 291°
2026-05-07 17:03 47.41761 16.63236 39963 ft 470 kts 290°
2026-05-07 17:03 47.44862 16.54702 39976 ft 473 kts 295°
2026-05-07 17:04 47.48150 16.46299 39975 ft 472 kts 296°
2026-05-07 17:04 47.50908 16.39318 39975 ft 472 kts 296°
2026-05-07 17:05 47.54212 16.30929 39975 ft 472 kts 296°
2026-05-07 17:05 47.57503 16.22526 39986 ft 471 kts 296°
2026-05-07 17:06 47.60784 16.14114 39987 ft 471 kts 296°
2026-05-07 17:06 47.64061 16.05684 39995 ft 472 kts 296°
2026-05-07 17:07 47.67334 15.97235 39996 ft 472 kts 296°
2026-05-07 17:07 47.70592 15.88803 39996 ft 472 kts 296°
2026-05-07 17:08 47.73853 15.80337 39996 ft 472 kts 296°
2026-05-07 17:08 47.77107 15.71862 39999 ft 472 kts 296°
2026-05-07 17:09 47.80363 15.63350 39996 ft 473 kts 296°
2026-05-07 17:09 47.83596 15.54875 39996 ft 473 kts 296°
2026-05-07 17:10 47.86840 15.46345 39990 ft 473 kts 296°
2026-05-07 17:10 47.90079 15.37802 39999 ft 473 kts 295°
2026-05-07 17:11 47.93311 15.29247 39997 ft 473 kts 295°
2026-05-07 17:11 47.96533 15.20692 39996 ft 473 kts 295°
2026-05-07 17:12 47.99750 15.12122 39994 ft 473 kts 295°
2026-05-07 17:12 48.02960 15.03544 39999 ft 473 kts 295°
2026-05-07 17:13 48.06166 14.94947 40001 ft 475 kts 295°
2026-05-07 17:13 48.09354 14.86371 39999 ft 475 kts 295°
2026-05-07 17:14 48.12563 14.77712 40010 ft 475 kts 295°
2026-05-07 17:14 48.15762 14.69050 40004 ft 476 kts 295°
2026-05-07 17:15 48.18966 14.60349 40010 ft 476 kts 295°
2026-05-07 17:15 48.22163 14.51635 40016 ft 477 kts 295°
2026-05-07 17:16 48.25332 14.42969 40019 ft 477 kts 295°
2026-05-07 17:16 48.28518 14.34231 40021 ft 477 kts 295°
2026-05-07 17:17 48.31694 14.25487 40021 ft 477 kts 295°
2026-05-07 17:17 48.34871 14.16714 40019 ft 477 kts 295°
2026-05-07 17:18 48.38041 14.07928 40019 ft 477 kts 295°
2026-05-07 17:18 48.41192 13.99167 40012 ft 477 kts 295°
2026-05-07 17:19 48.44347 13.90365 40019 ft 478 kts 295°
2026-05-07 17:19 48.47494 13.81558 40027 ft 477 kts 295°
2026-05-07 17:20 48.50638 13.72727 40017 ft 478 kts 295°
2026-05-07 17:20 48.53778 13.63878 40015 ft 478 kts 295°
2026-05-07 17:21 48.56911 13.55020 40022 ft 478 kts 295°
2026-05-07 17:21 48.59598 13.45869 40020 ft 475 kts 289°
2026-05-07 17:22 48.61909 13.36504 40021 ft 475 kts 288°
2026-05-07 17:22 48.64138 13.27163 40024 ft 475 kts 287°
2026-05-07 17:23 48.66376 13.17738 40025 ft 475 kts 287°
2026-05-07 17:23 48.68609 13.08336 40030 ft 475 kts 287°
2026-05-07 17:24 48.70844 12.98913 40030 ft 475 kts 287°
2026-05-07 17:24 48.73059 12.89486 40031 ft 475 kts 287°
2026-05-07 17:25 48.75263 12.80064 40033 ft 475 kts 287°
2026-05-07 17:25 48.77462 12.70634 40037 ft 475 kts 287°
2026-05-07 17:26 48.79649 12.61234 40035 ft 475 kts 287°
2026-05-07 17:26 48.81832 12.51783 40032 ft 475 kts 287°
2026-05-07 17:27 48.84003 12.42329 40037 ft 475 kts 287°
2026-05-07 17:27 48.86171 12.32857 40048 ft 475 kts 287°
2026-05-07 17:28 48.88320 12.23426 40040 ft 475 kts 287°
2026-05-07 17:28 48.90428 12.13895 40040 ft 475 kts 286°
2026-05-07 17:29 48.92451 12.04337 40041 ft 475 kts 285°
2026-05-07 17:29 48.94458 11.94807 40033 ft 475 kts 285°
2026-05-07 17:30 48.96492 11.85177 40041 ft 475 kts 286°
2026-05-07 17:30 48.98508 11.75612 40043 ft 475 kts 285°
2026-05-07 17:31 49.00520 11.66026 40032 ft 475 kts 285°
2026-05-07 17:31 49.02523 11.56438 40036 ft 475 kts 285°
2026-05-07 17:32 49.04514 11.46855 40047 ft 474 kts 285°
2026-05-07 17:32 49.06166 11.38871 40035 ft 474 kts 285°
2026-05-07 17:33 49.08465 11.27708 40036 ft 474 kts 285°
2026-05-07 17:33 49.10435 11.18089 40052 ft 474 kts 285°
2026-05-07 17:34 49.12394 11.08480 40043 ft 474 kts 285°
2026-05-07 17:34 49.14343 10.98871 40069 ft 474 kts 285°
2026-05-07 17:35 49.16289 10.89237 40069 ft 474 kts 285°
2026-05-07 17:35 49.18222 10.79614 40089 ft 474 kts 285°
2026-05-07 17:36 49.20146 10.69976 40085 ft 473 kts 285°
2026-05-07 17:36 49.21900 10.60339 40055 ft 473 kts 283°
2026-05-07 17:37 49.23585 10.50609 40058 ft 473 kts 283°
2026-05-07 17:37 49.25281 10.40880 40062 ft 473 kts 283°
2026-05-07 17:38 49.26990 10.31153 40060 ft 473 kts 283°
2026-05-07 17:38 49.28699 10.21409 40058 ft 473 kts 283°
2026-05-07 17:39 49.30397 10.11679 40058 ft 473 kts 283°
2026-05-07 17:39 49.32087 10.01934 40051 ft 474 kts 283°
2026-05-07 17:40 49.33772 9.92159 40046 ft 474 kts 283°
2026-05-07 17:40 49.35447 9.82389 40053 ft 474 kts 283°
2026-05-07 17:41 49.37107 9.72659 40045 ft 474 kts 283°
2026-05-07 17:41 49.38798 9.62681 40047 ft 474 kts 283°
2026-05-07 17:42 49.40443 9.52915 40046 ft 473 kts 283°
2026-05-07 17:42 49.42048 9.43076 40047 ft 473 kts 279°
2026-05-07 17:43 49.43054 9.34822 40048 ft 472 kts 278°
2026-05-07 17:43 49.44114 9.24786 40048 ft 472 kts 277°
2026-05-07 17:44 49.45120 9.14863 40042 ft 472 kts 277°
2026-05-07 17:44 49.46147 9.04750 40046 ft 472 kts 277°
2026-05-07 17:45 49.47163 8.94770 40052 ft 472 kts 277°
2026-05-07 17:45 49.48175 8.84775 40047 ft 472 kts 277°
2026-05-07 17:46 49.49176 8.74790 40046 ft 472 kts 277°
2026-05-07 17:46 49.50162 8.64854 40046 ft 472 kts 277°
2026-05-07 17:47 49.51145 8.54869 40047 ft 472 kts 277°
2026-05-07 17:47 49.52120 8.44866 40046 ft 472 kts 277°
2026-05-07 17:48 49.53086 8.34869 40045 ft 472 kts 277°
2026-05-07 17:48 49.54044 8.24863 40045 ft 472 kts 277°
2026-05-07 17:49 49.54993 8.14845 40044 ft 472 kts 277°
2026-05-07 17:49 49.55935 8.04820 40046 ft 472 kts 277°
2026-05-07 17:50 49.56865 7.94814 40043 ft 471 kts 277°
2026-05-07 17:50 49.57787 7.84802 40042 ft 471 kts 277°
2026-05-07 17:51 49.58701 7.74790 40041 ft 471 kts 276°
2026-05-07 17:51 49.59604 7.64788 40046 ft 471 kts 276°
2026-05-07 17:52 49.60494 7.54831 40041 ft 471 kts 276°
2026-05-07 17:52 49.61387 7.44745 40051 ft 471 kts 276°
2026-05-07 17:53 49.62265 7.34729 40048 ft 471 kts 276°
2026-05-07 17:53 49.63134 7.24704 40048 ft 471 kts 276°
2026-05-07 17:54 49.63994 7.14682 40046 ft 471 kts 276°
2026-05-07 17:54 49.64840 7.04719 40045 ft 471 kts 276°
2026-05-07 17:55 49.65164 6.94587 40045 ft 469 kts 269°
2026-05-07 17:55 49.65102 6.84508 40045 ft 469 kts 268°
2026-05-07 17:56 49.64958 6.74481 40050 ft 469 kts 268°
2026-05-07 17:56 49.64815 6.64405 40045 ft 470 kts 268°
2026-05-07 17:57 49.64702 6.55968 40046 ft 470 kts 268°
2026-05-07 17:57 49.64554 6.45047 40047 ft 470 kts 268°
2026-05-07 17:58 49.64408 6.34968 40048 ft 470 kts 268°
2026-05-07 17:58 49.64254 6.24893 39927 ft 468 kts 267°
2026-05-07 17:59 49.64174 6.19874 39702 ft 469 kts 267°
2026-05-07 17:59 49.64091 6.14840 39467 ft 468 kts 267°
2026-05-07 17:59 49.64007 6.09901 38974 ft 465 kts 267°
2026-05-07 17:59 49.63921 6.04920 38286 ft 464 kts 267°
2026-05-07 18:00 49.63832 5.99939 37502 ft 464 kts 267°
2026-05-07 18:00 49.63741 5.94952 36750 ft 463 kts 268°
2026-05-07 18:00 49.63648 5.89996 36013 ft 463 kts 268°
2026-05-07 18:00 49.63553 5.85021 35284 ft 462 kts 268°
2026-05-07 18:01 49.63457 5.80073 34590 ft 461 kts 268°
2026-05-07 18:01 49.63358 5.75128 33871 ft 459 kts 268°
2026-05-07 18:01 49.63259 5.70214 32999 ft 459 kts 268°
2026-05-07 18:01 49.63157 5.65280 32050 ft 461 kts 268°
2026-05-07 18:02 49.62944 5.55337 31091 ft 472 kts 268°
2026-05-07 18:02 49.62831 5.50198 31042 ft 474 kts 268°
2026-05-07 18:03 49.62535 5.40241 31042 ft 473 kts 264°
2026-05-07 18:03 49.61082 5.30374 31043 ft 473 kts 253°
2026-05-07 18:04 49.59481 5.20540 31016 ft 472 kts 262°
2026-05-07 18:04 49.59274 5.15498 30796 ft 472 kts 269°
2026-05-07 18:04 49.59266 5.10427 30547 ft 474 kts 270°
2026-05-07 18:04 49.59295 5.05346 30284 ft 474 kts 270°
2026-05-07 18:05 49.59330 5.00280 29403 ft 472 kts 270°
2026-05-07 18:05 49.59365 4.95286 29038 ft 459 kts 270°
2026-05-07 18:05 49.59399 4.90455 28901 ft 443 kts 270°
2026-05-07 18:05 49.59430 4.85778 28753 ft 431 kts 270°
2026-05-07 18:06 49.59459 4.81193 28328 ft 424 kts 270°
2026-05-07 18:06 49.59487 4.76679 27846 ft 418 kts 270°
2026-05-07 18:06 49.59515 4.72162 27532 ft 424 kts 270°
2026-05-07 18:06 49.59536 4.67612 27182 ft 425 kts 270°
2026-05-07 18:07 49.59555 4.63121 26833 ft 424 kts 270°
2026-05-07 18:07 49.59574 4.58584 26472 ft 422 kts 270°
2026-05-07 18:07 49.59591 4.54073 26119 ft 420 kts 270°
2026-05-07 18:07 49.59582 4.49584 25898 ft 420 kts 267°
2026-05-07 18:08 49.59248 4.45021 25885 ft 439 kts 259°
2026-05-07 18:08 49.58575 4.40369 25787 ft 448 kts 256°
2026-05-07 18:08 49.57820 4.35783 25548 ft 448 kts 255°
2026-05-07 18:08 49.57035 4.31148 25300 ft 447 kts 255°
2026-05-07 18:09 49.56244 4.26521 25050 ft 446 kts 255°
2026-05-07 18:09 49.55454 4.21917 24812 ft 444 kts 255°
2026-05-07 18:09 49.54674 4.17388 24583 ft 443 kts 255°
2026-05-07 18:09 49.53884 4.12818 24334 ft 441 kts 255°
2026-05-07 18:10 49.53095 4.08263 24096 ft 440 kts 255°
2026-05-07 18:10 49.52305 4.03716 23867 ft 439 kts 255°
2026-05-07 18:10 49.51516 3.99192 23630 ft 438 kts 255°
2026-05-07 18:10 49.50730 3.94690 23139 ft 431 kts 255°
2026-05-07 18:11 49.49957 3.90278 22521 ft 424 kts 255°
2026-05-07 18:11 49.49450 3.87385 22097 ft 420 kts 255°
2026-05-07 18:11 49.48439 3.81642 21268 ft 413 kts 255°
2026-05-07 18:11 49.47702 3.77464 20657 ft 408 kts 255°
2026-05-07 18:12 49.46960 3.73269 20026 ft 404 kts 255°
2026-05-07 18:12 49.46225 3.69123 19389 ft 401 kts 255°
2026-05-07 18:12 49.45493 3.64999 18767 ft 398 kts 255°
2026-05-07 18:12 49.44765 3.60915 18280 ft 391 kts 255°
2026-05-07 18:13 49.44064 3.56984 18131 ft 374 kts 255°
2026-05-07 18:13 49.43390 3.53212 17990 ft 359 kts 255°
2026-05-07 18:13 49.42737 3.49570 17601 ft 352 kts 255°
2026-05-07 18:13 49.42073 3.45962 17056 ft 350 kts 252°
2026-05-07 18:14 49.41233 3.42474 16787 ft 352 kts 248°
2026-05-07 18:14 49.40292 3.38927 16716 ft 363 kts 248°
2026-05-07 18:14 49.39327 3.35329 16516 ft 365 kts 248°
2026-05-07 18:14 49.38360 3.31729 16149 ft 364 kts 248°
2026-05-07 18:15 49.37410 3.28194 15873 ft 363 kts 248°
2026-05-07 18:15 49.36448 3.24615 15630 ft 362 kts 248°
2026-05-07 18:15 49.35500 3.21094 15382 ft 360 kts 248°
2026-05-07 18:15 49.34534 3.17507 15126 ft 359 kts 248°
2026-05-07 18:16 49.33580 3.13973 14908 ft 358 kts 248°
2026-05-07 18:16 49.32641 3.10498 14671 ft 357 kts 247°
2026-05-07 18:16 49.31688 3.06978 14422 ft 357 kts 247°
2026-05-07 18:16 49.30750 3.03517 14197 ft 356 kts 247°
2026-05-07 18:17 49.29806 3.00039 13960 ft 355 kts 247°
2026-05-07 18:17 49.28866 2.96581 13709 ft 354 kts 247°
2026-05-07 18:17 49.27919 2.93105 13460 ft 353 kts 247°
2026-05-07 18:17 49.26975 2.89641 13236 ft 352 kts 247°
2026-05-07 18:18 49.26031 2.86185 12984 ft 351 kts 247°
2026-05-07 18:18 49.25090 2.82742 12752 ft 350 kts 247°
2026-05-07 18:18 49.24162 2.79356 12525 ft 349 kts 247°
2026-05-07 18:18 49.23225 2.75939 12287 ft 348 kts 247°
2026-05-07 18:19 49.22595 2.73644 12142 ft 348 kts 247°
2026-05-07 18:19 49.22307 2.72596 12080 ft 347 kts 247°
2026-05-07 18:19 49.21391 2.69265 11896 ft 332 kts 247°
2026-05-07 18:19 49.20514 2.66081 11682 ft 319 kts 247°
2026-05-07 18:20 49.19671 2.63023 11471 ft 306 kts 247°
2026-05-07 18:20 49.18858 2.60076 11260 ft 295 kts 246°
2026-05-07 18:20 49.18212 2.57203 11066 ft 286 kts 258°
2026-05-07 18:20 49.17998 2.54181 10655 ft 287 kts 266°
2026-05-07 18:21 49.17934 2.51114 10139 ft 289 kts 268°
2026-05-07 18:21 49.17883 2.48041 9637 ft 289 kts 268°
2026-05-07 18:21 49.17827 2.44974 9136 ft 288 kts 267°
2026-05-07 18:21 49.17766 2.41927 8674 ft 286 kts 267°
2026-05-07 18:22 49.17533 2.38940 8279 ft 280 kts 256°
2026-05-07 18:22 49.17377 2.38008 8173 ft 278 kts 253°
2026-05-07 18:22 49.16429 2.33326 7472 ft 273 kts 252°
2026-05-07 18:22 49.15854 2.30610 7069 ft 271 kts 252°
2026-05-07 18:23 49.15271 2.27874 6633 ft 270 kts 252°
2026-05-07 18:23 49.14688 2.25156 6149 ft 270 kts 252°
2026-05-07 18:23 49.14051 2.22437 5547 ft 273 kts 245°
2026-05-07 18:23 49.12873 2.20173 4968 ft 276 kts 218°
2026-05-07 18:24 49.11189 2.18740 4387 ft 279 kts 203°
2026-05-07 18:24 49.09423 2.17607 4029 ft 273 kts 202°
2026-05-07 18:24 49.07697 2.16530 3959 ft 264 kts 201°
2026-05-07 18:24 49.05993 2.15464 3966 ft 265 kts 202°
2026-05-07 18:25 49.04256 2.14689 3962 ft 265 kts 184°
2026-05-07 18:25 49.02463 2.15142 3964 ft 263 kts 153°
2026-05-07 18:25 49.01943 2.15630 3965 ft 262 kts 141°
2026-05-07 18:25 49.00649 2.19735 3966 ft 259 kts 93°
2026-05-07 18:26 49.00684 2.21550 3971 ft 260 kts 84°
2026-05-07 18:26 49.00917 2.24291 3989 ft 261 kts 82°
2026-05-07 18:26 49.01120 2.27044 3810 ft 261 kts 85°
2026-05-07 18:26 49.01251 2.29783 3446 ft 256 kts 86°
2026-05-07 18:27 49.01386 2.32412 3051 ft 242 kts 85°
2026-05-07 18:27 49.01524 2.34883 2712 ft 227 kts 85°
2026-05-07 18:27 49.01687 2.37919 2322 ft 207 kts 84°
2026-05-07 18:27 49.01768 2.39437 2140 ft 189 kts 84°
2026-05-07 18:28 49.01870 2.41311 1890 ft 167 kts 85°
2026-05-07 18:28 49.01961 2.43007 1673 ft 155 kts 85°
2026-05-07 18:28 49.02046 2.44595 1459 ft 145 kts 85°
2026-05-07 18:28 49.02125 2.46060 1273 ft 133 kts 85°
2026-05-07 18:29 49.02188 2.47436 1098 ft 128 kts 85°
2026-05-07 18:29 49.02259 2.48803 860 ft 126 kts 83°
2026-05-07 18:29 49.02348 2.50136 713 ft 125 kts 83°
2026-05-07 18:29 49.02421 2.51440 544 ft 125 kts 85°
2026-05-07 18:30 49.02493 2.52763 368 ft 125 kts 86°
2026-05-07 18:30 49.02545 2.53854 367 ft 66 kts 85°
2026-05-07 18:30 49.02569 2.54275 365 ft 37 kts 84°
2026-05-07 18:30 49.02527 2.54656 363 ft 16 kts 105°
2026-05-07 18:31 49.02524 2.54671 361 ft 0 kts 106°